Tracking 19286 objects as of 19-Nov-2018
HD Live streaming from Space Station
objects crossing your sky now

USA 276

Track USA 276 now!
10-day predictions
USA 276 is classified as:


NORAD ID: 42689
Int'l Code: 2017-022A
Perigee: 393.4 km
Apogee: 413.5 km
Inclination: 50.0 °
Period: 92.5 minutes
Semi major axis: 6774 km
RCS: Unknown
Launch date: May 1, 2017
Source: United States (US)
Launch site: AIR FORCE EASTERN TEST RANGE (AFETR)
aabbcc
Your satellite tracking list
Your tracking list is empty




NASA's NSSDC Master Catalog

Two Line Element Set (TLE):
1 42689U 17022A   18318.74986499 0.00005200  00000-0  69993-4 0    08
2 42689  50.0263 243.6297 0014795 219.2242 140.7756 15.57016549    01
Source of the keplerian elements: McCants